Weather History for KCVX - September, 2011

Change the Weather History Date:

Sunday, September 4, 2011

  Actual Average Record
Temperature  
Mean Temperature 62 °F -  
Max Temperature 69 °F 69 °F 78 °F (2012)
Min Temperature 55 °F 54 °F 50 °F (2010)
Degree Days  
Heating Degree Days 3    
Growing Degree Days 12 (Base 50)    
Moisture  
Dew Point 57 °F    
Average Humidity 78    
Maximum Humidity 94    
Minimum Humidity 64    
Precipitation  
Precipitation 0.00 in - - ()
Sea Level Pressure  
Sea Level Pressure 29.83 in    
Wind  
Wind Speed 13 mph (WNW)    
Max Wind Speed 23 mph    
Max Gust Speed 31 mph    
Visibility 10 miles    
Events Rain    
Averages and records for this station are not official NWS values.
T = Trace of Precipitation, MM = Missing Value Source: NWS Daily Summary

Daily Weather History Graph

Daily Weather History Graph

Search for Another Location

Airport or City:

Trip Planner

Search our weather history database for the weather conditions in past years. The results will help you decide how hot, cold, wet, or windy it might be!

Date:

Astronomy

Sep. 04, 2011 Rise Set
Actual Time 7:06 AM EDT 8:13 PM EDT
Civil Twilight 6:35 AM EDT 8:43 PM EDT
Nautical Twilight 5:59 AM EDT 9:19 PM EDT
Astronomical Twilight 5:20 AM EDT 9:58 PM EDT
Moon 3:13 PM EDT (9/4) No Moon Set
Length of Visible Light 14h 07m
Length of Day
13h 07m
Waxing Crescent, 49% of the Moon is Illuminated
Sep 4
Waxing Crescent
Sep 4
First Quarter
Sep 12
Full
Sep 20
Last Quarter
Sep 27
New

Hourly Weather History & Observations

Time (EDT) Temp. Dew Point Humidity Pressure Visibility Wind Dir Wind Speed Gust Speed Precip Events Conditions
12:15 AM 69.8 °F 66.2 °F 88% 29.77 in 10.0 mi SSW 12.7 mph 18.4 mph N/A   Overcast
12:34 AM 69.8 °F 68.0 °F 94% 29.75 in 10.0 mi SSW 12.7 mph 18.4 mph N/A   Overcast
12:55 AM 69.8 °F 66.2 °F 88% 29.75 in 10.0 mi SW 8.1 mph 16.1 mph N/A   Mostly Cloudy
1:14 AM 69.8 °F 66.2 °F 88% 29.74 in 7.0 mi SW 9.2 mph - N/A   Mostly Cloudy
1:35 AM 69.8 °F 66.2 °F 88% 29.74 in 7.0 mi SW 9.2 mph - N/A   Mostly Cloudy
1:55 AM 69.8 °F 66.2 °F 88% 29.74 in 10.0 mi SW 10.4 mph 16.1 mph N/A   Overcast
2:15 AM 69.8 °F 66.2 °F 88% 29.74 in 7.0 mi WSW 12.7 mph - N/A Rain Light Rain
2:35 AM 68.0 °F 64.4 °F 88% 29.74 in 7.0 mi WSW 21.9 mph 26.5 mph N/A Rain Rain
2:55 AM 66.2 °F 64.4 °F 94% 29.74 in 10.0 mi WSW 13.8 mph 19.6 mph N/A   Overcast
3:15 AM 68.0 °F 64.4 °F 88% 29.74 in 10.0 mi WSW 13.8 mph 19.6 mph N/A   Overcast
3:35 AM 68.0 °F 64.4 °F 88% 29.74 in 10.0 mi WSW 12.7 mph 20.7 mph N/A   Overcast
3:55 AM 68.0 °F 64.4 °F 88% 29.74 in 10.0 mi WSW 16.1 mph 21.9 mph N/A   Overcast
4:35 AM 66.2 °F 60.8 °F 83% 29.75 in 10.0 mi West 11.5 mph 19.6 mph N/A   Overcast
5:14 AM 66.2 °F 59.0 °F 78% 29.75 in 10.0 mi WNW 12.7 mph - N/A   Overcast
5:35 AM 66.2 °F 59.0 °F 78% 29.76 in 10.0 mi West 15.0 mph - N/A   Overcast
5:55 AM 66.2 °F 57.2 °F 73% 29.77 in 10.0 mi WNW 11.5 mph 18.4 mph N/A   Overcast
6:15 AM 64.4 °F 59.0 °F 83% 29.77 in 10.0 mi West 9.2 mph - N/A   Overcast
6:35 AM 64.4 °F 59.0 °F 83% 29.77 in 10.0 mi WNW 9.2 mph - N/A   Overcast
6:55 AM 64.4 °F 57.2 °F 77% 29.78 in 10.0 mi WNW 10.4 mph - N/A   Mostly Cloudy
7:35 AM 64.4 °F 57.2 °F 77% 29.80 in 10.0 mi West 9.2 mph - N/A   Overcast
8:15 AM 64.4 °F 57.2 °F 77% 29.80 in 10.0 mi West 9.2 mph - N/A   Mostly Cloudy
8:35 AM 64.4 °F 57.2 °F 77% 29.81 in 10.0 mi West 10.4 mph - N/A   Mostly Cloudy
8:54 AM 64.4 °F 57.2 °F 77% 29.81 in 10.0 mi West 9.2 mph - N/A   Overcast
9:15 AM 64.4 °F 57.2 °F 77% 29.81 in 10.0 mi West 13.8 mph - N/A   Mostly Cloudy
9:35 AM 64.4 °F 55.4 °F 73% 29.81 in 10.0 mi WNW 11.5 mph - N/A   Mostly Cloudy
9:55 AM 66.2 °F 57.2 °F 73% 29.82 in 10.0 mi West 11.5 mph - N/A   Mostly Cloudy
10:15 AM 66.2 °F 55.4 °F 68% 29.82 in 10.0 mi WNW 13.8 mph 19.6 mph N/A   Mostly Cloudy
10:34 AM 66.2 °F 55.4 °F 68% 29.82 in 10.0 mi WNW 10.4 mph - N/A   Mostly Cloudy
11:34 AM 66.2 °F 55.4 °F 68% 29.83 in 10.0 mi West 15.0 mph 19.6 mph N/A   Scattered Clouds
11:55 AM 66.2 °F 55.4 °F 68% 29.84 in 10.0 mi WNW 12.7 mph - N/A   Scattered Clouds
12:34 PM 68.0 °F 55.4 °F 64% 29.83 in 10.0 mi West 12.7 mph 19.6 mph N/A   Scattered Clouds
12:55 PM 68.0 °F 55.4 °F 64% 29.83 in 10.0 mi WNW 13.8 mph 19.6 mph N/A   Scattered Clouds
1:14 PM 68.0 °F 57.2 °F 68% 29.84 in 10.0 mi West 13.8 mph - N/A   Mostly Cloudy
1:35 PM 66.2 °F 55.4 °F 68% 29.84 in 10.0 mi West 15.0 mph 19.6 mph N/A   Scattered Clouds
1:55 PM 68.0 °F 57.2 °F 68% 29.84 in 10.0 mi West 16.1 mph - N/A   Mostly Cloudy
2:14 PM 68.0 °F 55.4 °F 64% 29.84 in 10.0 mi West 17.3 mph 20.7 mph N/A   Mostly Cloudy
2:35 PM 68.0 °F 55.4 °F 64% 29.84 in 10.0 mi West 13.8 mph - N/A   Scattered Clouds
3:14 PM 66.2 °F 55.4 °F 68% 29.85 in 10.0 mi WSW 16.1 mph 21.9 mph N/A   Mostly Cloudy
3:35 PM 68.0 °F 55.4 °F 64% 29.85 in 10.0 mi West 17.3 mph 25.3 mph N/A   Mostly Cloudy
4:15 PM 66.2 °F 57.2 °F 73% 29.85 in 10.0 mi NW 19.6 mph 27.6 mph N/A   Mostly Cloudy
4:35 PM 60.8 °F 57.2 °F 88% 29.87 in 5.0 mi WNW 23.0 mph 31.1 mph N/A Rain Rain
4:54 PM 60.8 °F 57.2 °F 88% 29.88 in 7.0 mi WNW 19.6 mph 25.3 mph N/A Rain Light Rain
5:15 PM 60.8 °F 57.2 °F 88% 29.89 in 10.0 mi NW 17.3 mph 26.5 mph N/A   Overcast
5:35 PM 60.8 °F 55.4 °F 82% 29.89 in 10.0 mi NW 17.3 mph 25.3 mph N/A   Overcast
5:54 PM 60.8 °F 55.4 °F 82% 29.90 in 10.0 mi NW 17.3 mph 25.3 mph N/A   Overcast
6:15 PM 60.8 °F 53.6 °F 77% 29.91 in 10.0 mi NNW 17.3 mph 23.0 mph N/A   Overcast
6:35 PM 59.0 °F 53.6 °F 82% 29.92 in 7.0 mi NNW 17.3 mph 24.2 mph N/A   Overcast
7:15 PM 57.2 °F 51.8 °F 82% 29.94 in 10.0 mi NNW 17.3 mph 26.5 mph N/A   Overcast
7:34 PM 57.2 °F 50.0 °F 77% 29.94 in 10.0 mi NNW 19.6 mph 27.6 mph N/A   Overcast
7:54 PM 57.2 °F 50.0 °F 77% 29.95 in 10.0 mi NNW 18.4 mph 28.8 mph N/A   Overcast
8:15 PM 57.2 °F 50.0 °F 77% 29.96 in 10.0 mi North 20.7 mph 28.8 mph N/A   Overcast
8:55 PM 57.2 °F 48.2 °F 72% 29.97 in 10.0 mi North 18.4 mph 27.6 mph N/A   Overcast
9:15 PM 55.4 °F 50.0 °F 82% 29.98 in 10.0 mi North 17.3 mph 26.5 mph N/A   Overcast
9:55 PM 55.4 °F 48.2 °F 77% 29.98 in 10.0 mi NNW 20.7 mph 28.8 mph N/A   Overcast
10:15 PM 55.4 °F 48.2 °F 77% 29.98 in 10.0 mi North 18.4 mph 25.3 mph N/A   Overcast
11:15 PM 55.4 °F 48.2 °F 77% 30.00 in 10.0 mi North 21.9 mph 29.9 mph N/A Rain Light Rain
11:35 PM 53.6 °F 50.0 °F 88% 30.02 in 7.0 mi NE 13.8 mph 25.3 mph N/A Rain Rain
11:55 PM 53.6 °F 48.2 °F 82% 30.02 in 7.0 mi North 10.4 mph 24.2 mph N/A Rain Light Rain